Location: Unspecified
(0.0000°N, 0.0000°E)
Time: 05:24:58
(UTC+00:00)

S-56A Canister/Altair - All Passes

Search period start: 31 March 2015 00:00
Search period end: 10 April 2015 00:00
Orbit: 634 x 2501 km, 38.9° (Epoch: 30 March)

Date Brightness Start Highest point End Pass type
(mag) Time Alt. Az. Time Alt. Az. Time Alt. Az.
31 Mar - 00:06:07 10° N 00:12:57 18° NNE 00:18:54 10° ENE night (unlit)
31 Mar - 02:10:04 10° NW 02:19:56 63° NE 02:26:22 10° ESE night (unlit)
31 Mar - 04:18:30 10° W 04:23:53 21° SW 04:27:55 10° S visible
31 Mar - 12:46:37 10° S 12:52:35 26° SE 13:01:00 10° E daylight
31 Mar - 14:48:26 10° SW 14:57:22 78° NW 15:10:42 10° NE daylight
31 Mar - 16:55:34 10° W 17:04:57 26° NNW 17:15:51 10° NNE daylight
31 Mar - 23:33:16 10° N 23:39:54 16° NNE 23:45:54 10° ENE visible
01 Apr - 01:37:01 10° NW 01:47:24 55° NE 01:54:16 10° ESE night (unlit)
01 Apr - 03:44:53 10° WNW 03:51:40 28° SW 03:56:33 10° SSE visible
01 Apr - 12:15:18 10° S 12:20:08 20° SE 12:26:50 10° E daylight
01 Apr - 14:16:17 10° SW 14:24:38 88° NW 14:37:23 10° NE daylight
01 Apr - 16:22:35 10° W 16:31:44 29° NNW 16:42:54 10° NNE daylight
01 Apr - 23:00:28 10° N 23:06:44 15° NNE 23:12:41 10° NE visible
02 Apr - 01:03:56 10° NW 01:14:46 48° NE 01:22:04 10° ESE night (unlit)
02 Apr - 03:11:21 10° WNW 03:19:26 36° SW 03:25:00 10° SSE visible
02 Apr - 11:44:22 10° SSE 11:47:45 14° SE 11:52:20 10° ESE daylight
02 Apr - 13:44:15 10° SW 13:52:01 81° SE 14:04:01 10° NE daylight
02 Apr - 15:49:47 10° W 15:58:37 31° NNW 16:09:54 10° NNE daylight
02 Apr - 18:05:41 10° NNW 18:08:35 11° NNW 18:10:43 10° N daylight
02 Apr - 22:27:42 10° N 22:33:29 14° NNE 22:39:13 10° NE visible
03 Apr - 00:30:51 10° NNW 00:42:01 43° NE 00:49:47 10° ESE night (unlit)
03 Apr - 02:37:51 10° WNW 02:47:09 46° SW 02:53:20 10° SSE night (unlit)
03 Apr - 13:12:19 10° SW 13:19:30 69° SE 13:30:38 10° NE daylight
03 Apr - 15:17:08 10° W 15:25:35 35° NNW 15:36:52 10° NNE daylight
03 Apr - 17:30:46 10° NW 17:35:04 12° NNW 17:38:49 10° N daylight
03 Apr - 21:55:03 10° N 22:00:07 13° NNE 22:05:27 10° NE visible
03 Apr - 23:57:46 10° NNW 00:09:10 39° NNE 00:17:22 10° E visible
04 Apr - 02:04:24 10° WNW 02:14:48 57° SW 02:21:34 10° SSE night (unlit)
04 Apr - 12:40:28 10° SSW 12:47:05 57° SE 12:57:14 10° ENE daylight
04 Apr - 14:44:38 10° W 14:52:38 38° NNW 15:03:48 10° NNE daylight
04 Apr - 16:56:35 10° NW 17:01:38 13° NNW 17:06:24 10° N daylight
04 Apr - 21:22:37 10° N 21:26:41 12° NNE 21:31:17 10° NE visible
04 Apr - 23:24:42 10° NNW 23:36:13 35° NNE 23:44:51 10° E visible
05 Apr - 01:30:59 10° NW 01:42:21 69° SW 01:49:43 10° SE night (unlit)
05 Apr - 03:45:02 10° SW 03:46:33 10° SW 03:47:23 10° SW night (unlit)
05 Apr - 12:08:42 10° SSW 12:14:45 45° SE 12:23:48 10° ENE daylight
05 Apr - 14:12:15 10° WSW 14:19:49 42° NW 14:30:44 10° NNE daylight
05 Apr - 16:22:50 10° NW 16:28:18 14° NNW 16:33:45 10° N daylight
05 Apr - 20:50:39 10° N 20:53:09 11° NNE 20:56:25 10° NNE visible
05 Apr - 22:51:39 10° NNW 23:03:10 32° NNE 23:12:11 10° E visible
06 Apr - 00:57:34 10° NW 01:09:49 81° SW 01:17:46 10° SE night (unlit)
06 Apr - 03:09:15 10° WSW 03:14:09 15° SW 03:17:46 10° SSW night (unlit)
06 Apr - 11:37:03 10° SSW 11:42:29 35° SE 11:50:20 10° ENE daylight
06 Apr - 13:39:57 10° WSW 13:47:06 47° NW 13:57:40 10° NE daylight
06 Apr - 15:49:23 10° NW 15:55:03 15° NNW 16:01:01 10° N daylight
06 Apr - 22:18:40 10° NNW 22:30:00 29° NNE 22:39:22 10° E visible
07 Apr - 00:24:12 10° NW 00:37:10 88° NE 00:45:42 10° SE night (unlit)
07 Apr - 02:34:46 10° W 02:41:45 20° SW 02:46:47 10° S night (unlit)
07 Apr - 11:05:31 10° S 11:10:16 27° SE 11:16:49 10° ENE daylight
07 Apr - 13:07:47 10° WSW 13:14:28 54° NW 13:24:37 10° NE daylight
07 Apr - 15:16:11 10° WNW 15:21:55 16° NNW 15:28:13 10° N daylight
07 Apr - 21:45:44 10° NNW 21:56:46 26° NNE 22:06:21 10° E visible
07 Apr - 23:50:53 10° NW 00:04:25 78° NE 00:13:33 10° SE visible
08 Apr - 02:00:35 10° W 02:09:17 26° SW 02:15:26 10° S night (unlit)
08 Apr - 10:34:10 10° S 10:38:03 20° SE 10:43:12 10° E daylight
08 Apr - 12:35:40 10° WSW 12:41:58 62° NW 12:51:34 10° NE daylight
08 Apr - 14:43:10 10° WNW 14:48:53 17° NNW 14:55:25 10° N daylight
08 Apr - 21:12:52 10° NNW 21:23:27 24° NNE 21:33:08 10° E visible
08 Apr - 23:17:36 10° NW 23:31:33 69° NE 23:41:17 10° ESE visible
09 Apr - 01:26:35 10° WNW 01:36:48 33° SW 01:43:52 10° SSE night (unlit)
09 Apr - 10:03:06 10° SSE 10:05:51 14° SE 10:09:21 10° ESE daylight
09 Apr - 12:03:38 10° SW 12:09:33 73° NW 12:18:34 10° NE daylight
09 Apr - 14:10:21 10° WNW 14:15:57 18° NNW 14:22:36 10° NNE daylight
09 Apr - 20:40:07 10° NNW 20:50:04 22° NNE 20:59:40 10° ENE visible
09 Apr - 22:44:23 10° NW 22:58:34 62° NE 23:08:54 10° ESE visible
